Lid_Strength_Index
2 2 3 3 3 3 3 3 3 3 2 2 1 1 0 -0 -0 2 4 2 4 6 6 5 5 7 8 8 11 10 11 11 12 14 14 15 14 13 13 12 12 12 13 14 13 14 14 7 8 9 9 9 7 8
2 3 3 3 3 3 3 3 3 3 3 2 1 1 0 0 0 1 5 3 1 4 5 3 3 3 4 5 8 9 11 10 8 13 14 14 14 13 14 15 12 12 11 11 11 12 9 8 7 8 8 7 7 7
3 3 3 3 3 3 3 3 3 3 3 2 2 1 1 0 0 1 3 2 4 7 6 6 6 4 5 4 4 10 10 9 9 10 14 13 14 13 15 14 13 11 10 10 10 10 9 7 7 6 6 6 6 6
3 3 3 3 3 3 3 3 3 3 3 3 2 2 1 1 1 1 3 1 2 4 8 8 3 5 3 4 6 6 7 9 9 9 13 14 14 12 14 13 13 11 10 11 10 10 8 7 6 6 5 5 5 5
3 3 3 3 3 3 3 3 3 3 3 2 2 2 1 1 1 1 2 1 1 4 8 7 4 4 5 5 5 5 8 10 11 12 13 14 11 12 12 12 13 10 12 13 12 9 9 8 7 5 5 5 5 5
3 3 3 3 3 3 3 3 3 3 3 2 2 2 1 1 1 3 5 2 0 1 6 10 7 6 6 5 4 5 8 10 11 11 12 11 9 11 13 13 11 10 10 10 9 7 7 6 5 5 6 5 5 4
3 3 3 3 3 3 2 3 3 3 3 2 2 2 2 2 3 5 6 3 1 2 6 9 10 7 5 5 5 5 7 9 10 11 11 11 11 10 12 12 10 10 6 6 5 6 7 6 7 5 4 4 4 4
2 2 2 2 2 2 2 3 3 3 3 2 2 2 2 2 3 4 3 1 2 4 5 9 10 9 6 8 8 6 8 8 10 11 10 11 10 10 12 10 9 8 6 6 6 5 6 5 5 5 5 4 5 5
3 2 2 2 2 3 3 3 3 3 3 3 2 2 3 5 7 5 2 2 3 5 9 8 13 12 6 7 7 7 7 11 10 11 11 11 13 13 10 10 10 10 10 7 5 5 5 6 5 5 5 5 6 6
3 2 2 2 2 3 3 3 3 3 4 3 4 5 7 5 2 3 6 7 7 7 7 10 7 11 8 8 9 9 8 10 12 10 10 12 12 10 10 10 9 9 8 5 7 7 6 6 6 6 5 5 6 5
3 3 2 2 3 3 3 3 3 4 4 5 7 8 5 2 5 8 10 11 10 12 10 9 8 9 7 10 10 8 10 10 14 11 11 14 14 12 10 10 9 9 8 7 5 5 5 5 6 6 5 5 5 5
3 3 3 3 2 2 3 3 4 5 5 5 6 5 5 7 9 11 12 11 12 12 9 10 8 8 9 6 9 9 12 11 14 9 11 14 11 7 8 9 8 8 4 5 4 5 5 4 4 5 5 5 5 4
3 4 3 3 3 2 3 3 4 4 4 4 6 8 9 9 13 14 14 13 13 10 9 8 9 8 7 6 9 9 12 13 9 12 13 11 9 7 6 6 5 5 5 5 5 4 4 4 4 4 5 4 4 4
4 4 4 3 3 3 3 3 4 4 5 6 8 12 10 11 10 10 10 10 8 8 8 8 9 9 7 9 9 12 10 11 13 15 14 11 8 7 6 5 6 6 5 5 5 5 5 5 5 4 5 5 5 5
4 4 4 3 3 3 4 4 4 5 5 8 7 12 10 8 7 7 6 7 6 7 7 8 8 10 10 13 11 11 12 14 13 13 11 8 7 6 6 5 6 6 6 6 5 5 5 5 5 6 6 6 5 5
4 4 3 2 3 4 4 4 4 3 4 6 7 9 7 8 8 7 7 7 5 6 7 7 9 10 11 11 12 13 14 15 12 9 7 6 6 6 5 5 5 5 5 5 5 4 5 5 6 6 6 7 8 7
4 4 2 3 4 4 3 3 3 5 6 7 8 6 7 7 8 7 6 6 4 6 9 9 11 12 9 12 13 10 12 10 8 7 6 6 6 6 5 5 5 5 6 5 5 4 4 5 6 6 7 8 8 9
5 3 4 4 4 4 2 3 4 6 8 7 8 7 6 6 7 6 6 5 6 7 8 9 8 11 12 13 12 9 8 7 7 7 6 6 6 6 5 5 5 6 6 4 4 4 4 5 6 7 6 7 8 9
5 4 4 4 5 6 5 4 4 8 7 6 6 6 6 6 5 6 5 5 5 5 6 9 10 11 11 9 9 8 7 7 8 7 6 6 6 6 6 5 5 6 6 7 6 6 5 5 4 5 5 5 7 7
5 4 4 3 4 4 5 5 4 7 8 7 6 6 7 7 5 6 6 5 6 6 8 9 10 8 8 6 5 6 6 5 7 7 7 6 6 6 6 6 6 6 5 6 6 7 6 6 5 5 6 6 6 7
5 2 2 4 5 4 5 6 6 6 6 7 6 6 7 6 7 7 7 6 7 8 9 7 7 6 5 5 5 4 4 4 6 7 7 6 5 6 6 6 6 6 6 6 7 6 7 6 6 5 5 5 5 5
3 1 2 2 4 4 5 4 6 5 7 7 7 6 8 8 8 7 6 7 8 7 6 7 7 6 5 5 5 5 4 3 4 4 5 5 5 6 6 6 6 6 6 6 6 6 6 6 5 5 5 5 5 6
3 3 3 3 6 8 8 4 7 7 9 8 7 8 8 8 7 6 8 7 8 6 5 5 5 4 5 4 6 5 4 5 4 5 4 4 4 4 4 4 5 5 6 5 4 5 5 7 6 5 5 5 5 6
3 4 6 7 7 9 5 7 6 7 7 8 8 10 9 8 7 8 10 8 6 5 5 5 4 5 5 6 6 6 6 5 6 6 5 5 5 4 4 5 6 5 5 3 3 3 4 4 6 4 4 4 4 5
8 7 7 11 6 7 8 8 8 8 9 8 8 9 9 7 9 10 10 7 6 6 5 5 5 5 6 6 7 7 6 6 7 8 7 7 7 8 7 7 7 7 6 6 6 5 5 4 3 3 3 3 4 4
11 7 8 7 7 8 8 9 8 8 8 8 8 7 7 8 10 11 9 7 6 5 5 5 5 6 6 6 7 8 8 7 6 8 8 7 8 9 9 10 9 8 7 6 7 6 5 5 5 5 5 5 7 4
10 8 6 5 6 6 8 7 6 7 8 9 8 8 8 11 11 8 6 5 5 4 4 4 4 5 6 6 7 7 7 7 7 7 7 7 7 7 8 9 9 7 6 5 5 5 5 5 5 4 5 5 5 5
7 7 9 7 7 6 8 8 8 8 8 7 7 9 10 9 9 6 4 3 2 3 3 4 4 4 6 6 6 6 7 6 6 5 5 6 7 7 7 6 6 7 5 5 5 5 5 5 4 4 4 4 5 4
7 6 6 8 7 7 7 7 7 7 6 7 8 9 8 6 5 4 4 3 3 3 5 5 4 4 5 5 6 6 5 5 6 6 7 8 8 7 6 7 6 5 5 5 6 5 5 4 4 4 4 4 4 4
7 5 7 7 8 8 7 5 6 5 5 5 4 5 5 5 3 2 3 3 4 4 4 5 5 5 6 6 7 6 5 5 5 6 8 9 9 7 7 6 6 6 6 5 6 6 6 5 5 4 5 5 4 4
5 6 7 7 7 6 6 5 5 5 5 5 4 6 6 5 4 3 3 3 4 5 5 5 5 5 5 5 5 6 6 5 6 6 7 7 7 7 7 6 6 6 6 6 7 7 6 6 6 6 6 6 6 6
6 7 7 8 7 5 5 5 6 6 6 6 6 5 5 6 7 5 3 4 5 5 5 5 5 5 4 4 4 4 5 5 6 7 7 7 7 7 7 7 7 6 6 7 7 7 7 7 7 7 7 8 7 7
6 6 6 6 7 7 6 6 6 7 6 7 7 6 6 6 8 5 4 4 5 5 5 4 4 4 5 5 4 4 6 7 7 7 7 7 7 8 8 7 7 6 6 7 7 7 7 7 8 7 7 7 7 7